Location: Castle
(40.7167°S, 175.9500°E)
Time: 02:51:10
(UTC+00:00)

Cosmos 494 Rocket - Pass Details

Date: 04 August 2024
Orbit: 740 x 767 km, 74.1° (Epoch: 07 September)

Event Time Altitude Azimuth Distance (km) Brightness Sun altitude
Exits shadow 17:36:26 16° 205° (SSW) 1,928 5.8 -19.5°
Maximum altitude 17:40:39 72° 286° (WNW) 799 3.9 -18.7°
Drops below altitude 10° 17:45:48 10° 10° (N) 2,282 6.7 -17.8°
Sets 17:48:10 0° 12° (NNE) 3,204 7.5 -17.3°
